[TLELIST] Archives

 

[list_settings.list_name] Current TLEs

July 6th 2009 PST

HST 1 20580U 90037B 09184.87104713 +.00000299 +00000-0 +10095-4 0 04160 2 20580 028.4709 353.4064 0003543 098.9457 261.1520 15.00812797852360 ISS (ZARYA) 1 25544U 98067A 09187.16651382 .00008835 00000-0 64361-4 0 1650 2 25544 051.6392 209.4451 0007887 189.0267 247.4428 15.74210325608944 CXO 1 25867U 99040B 09185.00000000 -.00000212 +00000-0 +10000-3 0 03414 2 25867 065.5164 068.5430 7560165 275.7954 358.0234 00.37806390005075 ____________________________________________________________________ These 2-Line ...Continue Reading

[list_settings.list_name] Current TLEs

July 5th 2009 PST

HST 1 20580U 90037B 09183.87354234 +.00000396 +00000-0 +17621-4 0 04153 2 20580 028.4706 359.9154 0003528 087.8587 272.1955 15.00812828852215 ISS (ZARYA) 1 25544U 98067A 09184.86642361 +.00012880 +00000-0 +91914-4 0 01548 2 25544 051.6386 221.2590 0007610 181.6169 171.2864 15.74178968608579 CXO 1 25867U 99040B 09185.00000000 -.00000212 +00000-0 +10000-3 0 03414 2 25867 065.5164 068.5430 7560165 275.7954 358.0234 00.37806390005075 ____________________________________________________________________ These 2-Line ...Continue Reading

[list_settings.list_name] Current TLEs

July 4th 2009 PST

HST 1 20580U 90037B 09182.21105557 +.00001468 +00000-0 +10000-3 0 04145 2 20580 028.4715 010.7573 0003745 065.8123 294.2958 15.00816593851967 ISS (ZARYA) 1 25544U 98067A 09184.63861228 .00012881 00000-0 91947-4 0 1512 2 25544 051.6381 222.4298 0007559 181.2943 319.7228 15.74172783608549 CXO 1 25867U 99040B 09185.00000000 -.00000212 +00000-0 +10000-3 0 03414 2 25867 065.5164 068.5430 7560165 275.7954 358.0234 00.37806390005075 ____________________________________________________________________ These 2-Line ...Continue Reading

[list_settings.list_name] Current TLEs

July 3rd 2009 PST

HST 1 20580U 90037B 09182.21105557 +.00001468 +00000-0 +10000-3 0 04145 2 20580 028.4715 010.7573 0003745 065.8123 294.2958 15.00816593851967 ISS (ZARYA) 1 25544U 98067A 09182.83210648 -.00012261 +00000-0 -79402-4 0 01398 2 25544 051.6394 231.7114 0007698 173.9945 162.7813 15.74119689608257 CXO 1 25867U 99040B 09182.37500000 -.00000131 +00000-0 +10000-3 0 03405 2 25867 065.5061 068.6192 7552723 275.8119 000.6721 00.37805774005067 ____________________________________________________________________ These 2-Line ...Continue Reading

[list_settings.list_name] Current TLEs

July 2nd 2009 PST

HST 1 20580U 90037B 09180.01656090 +.00000269 +00000-0 +78522-5 0 04136 2 20580 028.4708 025.0868 0003353 048.7292 311.3646 15.00811505851634 ISS (ZARYA) 1 25544U 98067A 09181.88069444 +.00009900 +00000-0 +71958-4 0 01334 2 25544 051.6388 236.5946 0007999 169.9673 171.6662 15.74086380608109 CXO 1 25867U 99040B 09182.37500000 -.00000131 +00000-0 +10000-3 0 03405 2 25867 065.5061 068.6192 7552723 275.8119 000.6721 00.37805774005067 ____________________________________________________________________ These 2-Line ...Continue Reading

[list_settings.list_name] Current TLEs

July 1st 2009 PST

HST 1 20580U 90037B 09180.01656090 +.00000269 +00000-0 +78522-5 0 04136 2 20580 028.4708 025.0868 0003353 048.7292 311.3646 15.00811505851634 ISS (ZARYA) 1 25544U 98067A 09180.75945760 +.00008918 +00000-0 +65345-4 0 01277 2 25544 051.6391 242.3543 0007949 164.9874 298.6699 15.74058728607939 CXO 1 25867U 99040B 09177.04166667 +.00000084 +00000-0 +10000-3 0 03394 2 25867 065.4783 068.7929 7542134 275.8612 354.5032 00.37807641005048 ____________________________________________________________________ These 2-Line ...Continue Reading

[list_settings.list_name] Current TLEs

June 30th 2009 PST

HST 1 20580U 90037B 09177.02406476 +.00000239 +00000-0 +55270-5 0 04125 2 20580 028.4697 044.6212 0003154 016.2537 343.8190 15.00810730851185 ISS (ZARYA) 1 25544U 98067A 09179.80725354 +.00010446 +00000-0 +75818-4 0 01226 2 25544 051.6399 247.2428 0007986 161.5316 302.7565 15.74045126607788 CXO 1 25867U 99040B 09177.04166667 +.00000084 +00000-0 +10000-3 0 03394 2 25867 065.4783 068.7929 7542134 275.8612 354.5032 00.37807641005048 ____________________________________________________________________ These 2-Line ...Continue Reading

[list_settings.list_name] Current TLEs

June 29th 2009 PST

HST 1 20580U 90037B 09177.02406476 +.00000239 +00000-0 +55270-5 0 04125 2 20580 028.4697 044.6212 0003154 016.2537 343.8190 15.00810730851185 ISS (ZARYA) 1 25544U 98067A 09179.74201508 .00010439 00000-0 75769-4 0 1215 2 25544 051.6397 247.5776 0008002 161.6780 292.6834 15.74043623607776 CXO 1 25867U 99040B 09177.04166667 +.00000084 +00000-0 +10000-3 0 03394 2 25867 065.4783 068.7929 7542134 275.8612 354.5032 00.37807641005048 ____________________________________________________________________ These 2-Line ...Continue Reading

[list_settings.list_name] Current TLEs

June 28th 2009 PST

HST 1 20580U 90037B 09177.02406476 +.00000239 +00000-0 +55270-5 0 04125 2 20580 028.4697 044.6212 0003154 016.2537 343.8190 15.00810730851185 ISS (ZARYA) 1 25544U 98067A 09178.79061502 .00011144 00000-0 80644-4 0 1174 2 25544 051.6404 252.4636 0007979 157.4493 302.1575 15.74025710607621 CXO 1 25867U 99040B 09177.04166667 +.00000084 +00000-0 +10000-3 0 03394 2 25867 065.4783 068.7929 7542134 275.8612 354.5032 00.37807641005048 ____________________________________________________________________ These 2-Line ...Continue Reading

[list_settings.list_name] Current TLEs

June 27th 2009 PST

HST 1 20580U 90037B 09174.09806668 +.00000242 +00000-0 +57594-5 0 04110 2 20580 028.4694 063.7168 0003244 344.9911 015.0591 15.00810340850742 ISS (ZARYA) 1 25544U 98067A 09177.53596065 .00010786 00000-0 78297-4 0 1095 2 25544 051.6403 258.9060 0008121 152.7238 032.6638 15.73994963607424 CXO 1 25867U 99040B 09177.04166667 +.00000084 +00000-0 +10000-3 0 03394 2 25867 065.4783 068.7929 7542134 275.8612 354.5032 00.37807641005048 ____________________________________________________________________ These 2-Line ...Continue Reading
  • This mailing list is a public mailing list - anyone may join or leave, at any time.
  • This mailing list is announce-only.

International Space Station (ISS) / Hubble Space Telescope (HST) / Chandra X-Ray Observatory Orbital Data via EMAIL

Privacy Policy:

Private list